Simultaneous Nadir Overpasses (SNOs) Predictions

Prediction of SNOs between GOES-15 and METOP-C Satellite Orbit:

Table of predicted SNOs for the next 14.0 days since TLE Epoch: 6/5/2022
Index Date Time (GOES-15) GOES-15 Lat,Lon METOP-C Lat,Lon Distance(km) Time Diff (sec)
1 06/05/2022 06:20:11 0.21,-128.12 -0.64,-131.85 424.97 80
2 06/06/2022 05:56:52 0.23,-128.14 0.51,-126.86 146.06 80
3 06/07/2022 18:18:24 -0.22,-128.21 0.50,-131.43 366.36 80
4 06/08/2022 17:55:05 -0.23,-128.23 -0.65,-126.44 204.73 80
5 06/10/2022 06:16:47 0.21,-128.24 -0.40,-131.04 319.27 80
6 06/11/2022 05:53:27 0.23,-128.25 0.69,-126.04 251.19 80
7 06/12/2022 18:14:58 -0.21,-128.31 0.32,-130.61 262.64 80
8 06/13/2022 17:51:40 -0.22,-128.32 -0.83,-125.62 307.37 80
9 06/15/2022 06:13:21 0.21,-128.31 -0.21,-130.22 218.01 80
10 06/16/2022 05:50:03 0.23,-128.32 0.94,-125.24 351.25 80
11 06/17/2022 18:11:33 -0.21,-128.36 0.14,-129.79 164.15 80
12 06/18/2022 17:48:15 -0.23,-128.36 -1.02,-124.81 405.28 80
